GFSCGP_700_spd_132.txt.gz
Wind_Speed
22 22 24 18 12 4 3 6 6 5 4 8 6 7 20 25 30 29 24 20 19 13 11 10 8 3 2 7 8 10 9 8 9 11 15 15 15 16 15 14 15 16 17 18
18 22 17 13 11 9 7 3 8 3 8 13 8 10 12 34 32 31 27 25 21 17 17 15 10 4 3 6 7 11 11 10 12 13 15 16 18 16 15 13 13 15 16 16
15 12 14 9 10 13 10 8 6 4 5 14 16 14 18 31 35 33 33 25 22 18 15 12 9 5 5 5 5 9 8 8 12 12 16 17 18 16 15 13 12 15 12 14
11 11 8 13 13 13 14 7 8 4 8 9 16 8 8 23 36 35 33 33 28 23 18 10 8 6 5 9 5 8 8 9 11 12 12 12 12 13 13 14 13 13 11 13
8 11 6 7 10 12 10 16 8 8 4 6 9 10 7 10 22 44 40 36 34 28 24 16 8 5 6 8 8 7 9 10 10 11 10 10 13 16 16 15 14 14 13 13
6 5 5 5 6 6 15 14 8 8 2 2 6 8 9 6 15 38 44 38 37 31 27 22 15 12 8 8 10 10 10 11 12 13 12 12 13 15 14 15 13 14 15 14
6 6 5 5 7 13 17 20 5 3 2 1 12 6 12 12 14 26 45 38 35 31 29 27 23 17 11 9 7 10 11 12 11 10 12 11 15 15 13 13 13 12 13 14
5 4 9 9 7 5 22 24 4 6 5 3 3 6 7 9 8 8 39 40 36 32 31 26 24 19 16 11 9 10 12 13 13 12 10 10 13 12 13 14 14 14 14 15
4 1 7 5 7 12 23 24 7 8 5 4 4 5 7 9 5 6 35 43 42 37 33 26 26 24 19 14 12 10 10 15 13 13 14 13 12 11 11 12 13 14 14 15
6 6 1 1 4 10 11 14 7 4 4 2 5 2 9 2 5 11 24 34 36 39 39 32 27 26 21 17 12 14 13 15 14 13 12 14 14 14 13 12 11 11 13 14
8 6 7 5 1 4 19 14 10 6 5 6 3 7 6 15 4 3 11 24 33 41 44 37 30 25 23 20 16 14 15 14 16 17 15 13 14 13 13 11 10 11 12 12
5 6 9 5 6 6 9 12 18 19 7 6 4 5 8 14 5 11 11 13 24 37 45 42 35 29 26 23 21 18 17 15 15 14 16 16 16 16 15 14 12 13 13 13
6 1 4 2 10 3 4 3 6 12 17 15 5 5 6 8 4 10 2 8 19 29 40 49 41 34 28 22 22 22 19 14 15 12 14 16 19 19 18 16 17 17 16 15
8 6 5 4 3 3 3 1 3 5 8 11 13 9 9 10 6 9 4 6 3 13 28 43 36 36 29 25 24 20 18 18 17 18 15 14 18 18 19 20 20 19 18 18
12 11 10 10 10 8 4 2 4 5 4 8 11 13 10 8 9 8 7 9 4 5 15 26 35 35 28 27 27 24 22 23 20 22 23 19 15 18 22 22 21 19 19 19
7 6 8 10 10 12 9 5 5 6 6 7 11 14 12 9 8 9 4 4 2 10 16 23 29 33 32 28 25 27 24 28 28 28 29 25 24 22 21 23 21 20 18 17
9 9 6 9 10 12 9 8 5 5 6 7 9 10 10 10 10 11 6 3 3 13 15 25 25 32 33 31 27 29 29 30 32 31 33 35 36 30 25 23 24 23 21 15
11 10 10 4 4 3 9 13 7 4 4 5 7 6 4 8 9 10 9 8 7 10 19 23 29 30 31 30 31 30 31 33 36 37 36 38 38 42 34 28 26 26 30 26
13 11 7 7 6 8 8 14 13 10 4 2 2 6 8 10 10 9 8 8 10 12 17 19 23 27 28 30 33 36 40 47 41 46 46 36 36 34 36 32 28 28 30 29
14 15 13 9 5 6 4 11 13 12 12 6 5 6 9 9 7 6 5 5 5 5 7 12 21 24 28 28 27 32 21 22 21 26 42 37 25 31 31 32 26 23 18 22
7 10 13 15 11 7 8 12 12 14 10 10 8 7 6 7 6 4 5 11 10 8 6 4 5 10 12 14 8 15 21 20 20 21 16 17 21 13 16 19 20 15 11 13
4 4 8 11 10 9 12 15 13 7 10 18 16 13 6 4 1 2 3 9 10 10 8 8 9 11 10 10 8 5 10 14 6 4 12 9 10 22 14 13 13 13 13 13
6 5 4 7 7 9 11 17 14 8 6 11 13 10 9 11 5 6 6 7 9 11 12 11 12 13 16 14 15 13 13 9 8 8 10 22 14 22 12 12 9 9 11 11
10 9 8 10 8 11 12 15 19 13 12 15 16 13 12 18 18 13 3 5 6 8 9 10 12 12 12 12 10 9 9 10 12 11 9 14 15 21 19 16 19 13 15 16
9 7 9 8 7 5 5 10 9 7 6 10 11 10 10 9 10 11 6 1 3 6 8 8 8 9 9 10 12 11 12 9 8 9 16 17 15 21 20 22 21 15 14 18
14 9 7 8 5 6 8 8 6 5 4 7 8 10 8 8 7 7 8 9 6 5 5 7 8 8 9 9 10 10 12 14 17 18 19 19 18 19 20 17 16 12 11 13

GFSCGP_700_spd_135.txt.gz
Wind_Speed
22 22 15 16 10 12 7 7 8 7 3 2 1 1 17 23 27 29 27 22 18 15 17 11 10 10 9 10 12 13 10 10 11 15 17 16 18 13 12 12 13 14 12 13
20 14 15 11 11 7 3 2 4 8 10 8 8 12 10 19 25 29 28 25 23 20 18 13 10 8 10 9 11 15 13 11 12 14 14 13 14 16 15 13 13 14 15 15
13 11 10 8 7 9 7 5 3 2 4 7 9 9 7 14 28 31 30 27 22 22 19 16 8 8 9 8 10 16 14 13 12 14 16 16 17 15 13 13 13 13 14 17
6 7 10 12 10 10 9 9 3 2 4 6 12 6 19 7 24 34 33 29 28 23 22 18 12 9 9 11 11 16 15 14 14 14 16 16 12 12 13 14 12 15 13 16
5 11 8 10 14 11 11 13 6 5 3 5 5 4 4 5 16 32 37 32 28 26 23 19 14 9 9 12 10 13 15 17 16 15 14 14 16 15 15 13 12 13 13 14
6 6 7 8 9 14 13 11 8 4 3 2 7 4 7 11 7 22 30 37 32 30 27 21 17 15 11 13 13 12 14 16 18 17 15 14 16 16 15 14 13 13 12 13
2 6 7 8 9 11 16 13 3 1 2 1 2 4 8 10 16 13 17 41 32 34 31 27 23 18 11 9 11 14 14 15 17 16 15 14 15 17 17 14 14 13 12 12
1 6 11 8 11 7 18 14 6 4 4 4 1 5 8 12 9 16 17 36 36 34 34 29 23 18 14 9 8 9 13 15 17 17 15 14 13 16 15 15 16 14 13 13
3 0 9 2 10 8 16 19 10 3 4 2 6 6 13 8 2 10 14 36 43 36 33 32 29 25 19 15 9 8 11 14 16 16 16 15 14 14 14 15 16 15 14 14
4 3 4 1 4 11 10 16 8 7 4 4 2 6 8 4 8 10 8 31 42 35 32 30 27 27 23 16 13 13 10 12 16 16 16 15 16 16 16 16 14 15 16 15
7 4 3 2 4 8 15 12 12 7 5 2 2 6 1 5 6 9 6 9 34 32 31 29 27 26 23 20 17 14 16 14 16 17 16 16 17 17 18 17 16 15 15 15
5 6 7 4 4 6 15 16 16 13 8 5 2 5 5 9 12 12 8 8 6 26 35 31 30 29 28 24 20 16 16 13 15 17 18 17 19 19 17 16 16 15 14 14
4 3 5 3 6 6 6 9 14 19 18 15 8 8 8 2 12 13 9 10 14 18 23 35 35 33 30 29 24 20 17 15 14 15 16 18 19 19 18 18 19 18 16 15
7 6 5 8 3 5 6 6 4 8 6 12 17 20 13 7 5 12 10 4 4 11 14 26 35 34 31 26 27 24 20 18 14 14 12 13 16 17 18 19 20 20 19 18
8 8 12 12 13 11 8 7 6 5 5 7 11 19 15 13 5 8 10 8 8 12 17 24 32 35 30 27 27 26 23 20 17 16 15 14 13 14 19 20 22 23 21 21
8 5 10 11 11 12 14 11 9 8 6 8 9 13 15 18 10 8 9 5 8 9 12 18 29 31 36 29 27 26 25 22 20 21 20 20 20 21 19 18 22 24 25 24
10 9 9 8 10 12 13 13 10 8 9 6 9 11 11 16 14 11 10 5 3 9 9 17 25 23 25 27 26 29 24 25 24 24 28 27 28 28 28 28 25 26 27 27
11 11 10 9 6 7 9 13 13 10 9 6 8 14 10 11 13 14 13 7 4 8 11 21 29 22 26 26 29 27 26 22 24 26 29 33 35 36 35 35 34 30 31 29
14 14 9 6 8 11 10 10 14 13 13 6 5 11 13 12 13 12 13 12 10 8 13 17 26 28 30 28 30 31 30 27 31 31 33 35 37 37 41 38 42 36 33 31
10 12 12 11 6 5 9 12 14 14 15 10 6 7 10 12 12 14 14 12 13 13 14 18 23 27 28 28 28 29 31 34 35 39 38 32 31 48 39 41 50 52 37 34
6 8 13 14 11 11 13 11 11 10 6 16 12 10 8 8 8 7 13 12 10 11 11 14 20 23 25 28 27 27 29 33 28 19 17 20 17 18 30 25 35 36 35 29
6 4 6 9 10 12 14 12 11 11 12 14 13 9 4 7 4 4 3 12 11 10 10 10 11 14 18 18 16 13 16 22 20 20 14 6 2 7 16 18 9 23 16 15
8 7 7 7 7 9 8 10 9 9 4 9 16 10 10 6 4 3 1 2 9 9 10 11 11 11 11 11 8 5 6 10 13 10 11 10 16 13 12 19 9 7 15 15
12 11 14 13 9 9 13 16 14 12 8 9 11 12 9 7 8 4 2 3 5 5 8 10 11 11 13 14 11 12 11 12 14 13 12 14 13 14 6 11 12 16 11 14
14 11 12 14 11 8 7 7 8 9 12 12 11 11 9 5 4 9 6 2 3 5 6 7 7 8 10 11 12 14 15 13 12 10 10 7 7 9 10 15 13 13 19 18
17 16 12 10 5 2 8 11 13 11 9 8 6 8 9 7 7 4 3 5 6 5 6 7 9 10 10 10 11 12 10 10 9 9 11 10 14 12 13 17 17 14 15 17

GFSCGP_700_spd_138.txt.gz
Wind_Speed
14 13 14 12 7 4 3 4 7 5 7 2 4 4 29 25 26 28 25 22 17 17 14 13 13 13 15 16 17 17 13 11 13 18 18 17 14 12 10 12 12 13 12 14
11 13 13 11 9 6 5 2 5 6 6 4 1 6 7 22 25 31 23 23 19 18 16 16 12 13 11 13 15 18 14 12 15 18 19 17 16 11 10 11 11 14 13 13
11 10 10 11 11 10 8 5 3 2 2 3 3 5 3 7 18 28 31 23 22 19 19 18 13 11 14 11 14 16 15 16 18 20 22 17 16 13 11 9 10 12 13 14
8 7 11 10 11 11 12 7 4 3 4 6 4 3 3 9 12 31 31 24 23 24 21 18 16 11 12 12 14 18 17 17 18 18 19 18 15 13 12 12 11 10 13 16
6 9 8 10 13 12 9 5 8 6 5 6 4 5 3 4 9 25 36 30 23 23 24 22 18 15 12 14 14 18 18 18 18 18 18 17 18 16 14 14 11 12 11 15
5 7 9 8 9 11 9 7 7 7 7 11 3 6 2 6 10 13 32 33 26 27 25 23 20 18 17 17 15 18 18 18 18 19 20 20 18 18 16 15 12 12 12 13
5 8 9 9 6 10 12 12 10 10 8 4 3 5 3 2 7 13 14 25 34 30 28 26 25 23 19 17 16 16 18 18 20 20 20 19 20 20 17 15 13 13 12 12
4 12 12 10 11 9 15 16 12 7 4 3 3 4 3 9 8 13 14 14 34 34 30 29 27 22 17 13 13 16 17 19 18 19 20 19 19 18 19 18 17 16 15 14
3 5 10 7 11 11 13 16 11 11 5 6 2 7 9 2 5 7 9 18 30 43 33 32 28 25 20 14 11 11 15 18 19 18 19 19 19 20 21 19 17 17 17 16
2 6 8 5 8 11 13 7 14 15 5 5 5 4 8 3 2 7 11 11 26 37 34 32 30 27 25 19 14 12 14 16 17 19 19 19 18 18 19 18 17 18 18 17
4 6 8 5 9 9 10 13 16 8 14 1 4 4 5 4 7 7 9 8 23 37 40 36 33 31 26 22 19 14 14 12 18 20 19 17 17 17 18 17 17 17 17 17
6 7 12 9 5 8 12 13 19 17 13 9 6 3 6 8 7 8 11 10 19 35 30 38 38 33 30 27 23 18 14 14 14 18 19 18 19 18 17 16 17 17 16 16
4 7 12 16 12 10 10 11 14 15 20 12 8 2 6 6 3 12 13 9 13 20 32 34 34 34 31 29 26 21 17 15 13 15 17 18 18 19 18 17 17 18 17 17
6 9 11 18 6 5 8 10 10 16 19 17 15 17 9 9 8 15 12 6 3 4 14 20 36 35 32 30 28 24 21 17 16 13 14 14 15 15 16 17 18 18 19 18
6 12 11 14 13 11 10 11 11 14 16 13 6 16 13 11 10 13 16 10 8 9 14 16 27 35 36 32 30 29 26 21 18 14 14 11 11 13 15 17 19 20 20 20
5 8 9 14 13 14 17 16 14 13 12 14 12 14 17 19 12 12 12 15 11 9 19 17 20 32 34 34 31 29 31 27 23 20 18 17 16 16 16 16 17 20 19 21
10 10 9 13 5 10 16 20 19 17 13 12 12 9 12 15 15 14 14 14 11 8 12 14 20 36 40 37 34 32 33 30 27 24 22 22 21 20 22 22 21 21 21 22
10 8 10 13 9 11 7 10 15 16 16 13 15 18 16 15 16 14 15 15 10 5 9 10 17 26 38 43 39 35 33 34 32 30 28 25 26 25 29 28 29 32 30 30
10 9 11 11 15 12 11 10 11 14 16 15 13 17 16 15 15 14 15 18 11 6 8 12 14 22 23 29 35 34 36 30 33 24 24 21 25 29 32 36 37 38 38 35
7 9 11 12 9 8 2 3 13 10 17 16 16 18 15 16 8 15 13 16 15 12 10 16 23 23 26 30 32 27 25 26 26 27 27 25 28 29 24 39 36 44 39 35
5 7 12 13 12 13 9 15 12 10 7 11 17 11 10 8 12 12 13 12 13 13 15 14 19 24 25 28 30 30 29 29 27 27 33 30 31 26 33 30 35 31 38 31
8 7 8 6 9 12 11 13 9 10 14 14 15 12 9 8 7 5 8 13 11 8 8 13 16 20 24 24 26 25 24 25 26 28 26 29 24 19 21 10 16 9 27 29
8 8 7 7 8 13 16 12 14 11 11 11 17 17 11 4 5 5 4 10 12 11 10 7 8 12 16 18 20 15 14 17 18 16 15 19 11 18 15 12 15 14 5 9
12 13 11 12 8 13 17 16 19 12 12 7 9 14 9 6 7 2 5 7 7 8 9 10 10 10 11 15 13 10 7 6 10 15 12 11 14 19 17 14 7 16 13 14
13 12 12 14 14 13 16 15 15 16 17 15 13 11 17 10 9 10 6 4 4 5 6 6 9 11 11 11 10 10 10 10 12 12 11 13 12 7 9 5 8 8 7 11
18 16 14 13 10 10 11 9 9 11 11 15 14 13 12 13 10 8 8 7 6 6 5 6 6 7 9 11 12 11 10 10 11 12 10 8 9 10 9 7 8 10 13 13

GFSCGP_700_spd_141.txt.gz
Wind_Speed
12 13 15 13 10 3 4 2 9 5 7 5 3 3 6 27 21 22 28 23 20 19 15 13 15 13 14 17 17 15 15 14 17 19 17 14 7 10 10 9 13 12 11 12
9 14 13 9 9 10 10 1 7 6 2 1 4 1 10 15 25 31 25 25 29 23 20 17 17 18 17 17 18 17 15 14 17 20 17 11 9 8 6 8 11 11 11 13
11 9 10 11 8 9 9 5 1 5 2 2 1 7 12 17 14 28 36 32 32 28 15 19 17 16 18 17 15 17 16 15 18 20 19 21 17 12 12 9 10 12 12 13
10 10 5 11 13 11 14 5 6 3 9 4 7 2 16 11 8 26 37 34 21 17 20 21 16 18 16 17 16 19 16 16 18 20 19 18 18 9 8 8 7 11 11 12
6 7 9 12 12 10 6 4 6 6 10 12 5 13 16 15 17 11 37 37 23 28 27 19 18 16 16 16 15 17 18 17 19 20 22 18 15 11 12 9 12 9 11 15
3 8 10 9 11 14 12 8 8 10 12 17 4 5 10 11 11 5 36 36 22 26 27 24 26 20 18 15 16 17 18 18 18 20 19 21 21 15 12 12 13 10 10 12
7 9 9 12 9 9 14 16 17 13 11 4 4 7 4 3 7 8 12 32 29 21 29 33 23 25 18 20 17 16 17 17 19 20 22 23 23 21 20 16 11 7 6 7
10 14 13 10 14 8 15 22 17 1 6 8 7 3 1 3 6 9 10 24 30 29 24 29 26 24 23 19 21 18 17 17 19 20 21 23 23 20 19 17 14 11 10 10
4 7 5 9 11 12 9 19 18 9 12 6 13 5 6 3 6 10 6 11 18 29 26 29 27 33 22 22 23 19 17 17 17 19 20 20 19 20 20 19 18 15 18 11
4 10 6 11 11 15 17 8 13 13 5 7 4 6 13 7 7 11 8 6 20 28 36 29 27 27 25 22 20 17 16 17 17 17 18 19 19 19 18 17 21 17 17 18
7 10 6 8 13 15 10 18 21 8 5 2 5 10 9 8 7 8 10 7 17 28 36 31 32 27 29 23 20 18 16 17 18 19 19 19 18 18 19 18 18 17 17 16
5 11 12 14 6 5 8 17 24 24 22 6 6 16 7 2 3 9 5 8 14 26 32 33 30 29 25 28 25 20 14 13 14 18 19 18 17 18 18 17 17 17 16 16
2 10 16 16 19 16 15 19 17 21 10 8 3 5 1 3 5 8 8 5 9 20 44 36 32 32 28 28 22 23 17 14 14 15 18 18 18 17 16 15 15 15 15 14
7 9 15 17 8 15 17 19 19 17 20 25 18 11 12 2 4 8 9 9 7 14 34 37 42 28 28 27 30 25 20 17 15 13 16 16 16 16 16 16 16 16 15 14
6 12 13 17 16 16 17 13 20 20 18 17 2 12 5 4 5 6 8 8 7 11 30 28 29 39 34 25 32 28 26 21 17 16 14 14 15 15 15 16 16 16 16 16
8 11 10 15 16 18 22 22 22 17 20 20 22 14 9 9 11 11 12 13 11 4 9 27 27 33 42 37 31 30 27 27 24 20 18 16 15 13 13 13 13 14 15 17
9 11 12 17 14 11 18 22 25 24 22 16 19 18 8 6 7 9 11 16 12 8 13 20 25 22 42 40 40 34 31 31 30 26 22 21 20 18 17 18 17 16 15 17
12 12 11 16 14 13 17 9 11 16 22 18 21 5 6 12 12 12 10 14 15 11 15 16 21 21 44 43 36 44 35 31 34 31 27 24 23 22 22 22 21 21 23 23
9 10 13 16 17 16 12 11 15 20 22 21 20 20 14 14 14 15 11 13 16 13 11 13 10 14 26 42 46 42 37 32 29 34 31 29 28 29 23 23 29 27 30 31
8 9 12 15 10 13 6 6 4 6 19 18 25 19 16 14 9 14 14 15 15 16 10 11 12 8 13 19 35 39 34 35 33 29 32 29 28 26 24 25 26 29 31 35
10 8 15 17 16 12 5 9 7 8 10 9 10 9 10 10 14 18 17 16 15 15 12 11 15 15 16 17 22 23 27 24 28 25 29 32 29 27 27 30 31 32 32 35
10 13 16 12 11 11 5 7 11 8 6 11 9 13 16 16 11 13 13 15 12 9 9 12 12 18 19 19 21 20 21 19 20 23 25 27 26 27 26 23 23 16 16 24
11 13 14 8 7 8 10 11 17 9 13 11 11 21 22 16 9 7 7 11 13 11 9 8 10 16 15 19 20 24 23 23 22 23 25 23 19 19 18 15 14 16 17 18
15 14 12 14 13 10 13 15 14 15 12 9 11 19 16 7 3 2 3 8 14 13 12 7 8 7 10 15 14 10 11 13 13 13 10 11 14 14 14 15 15 10 8 8
7 7 10 14 16 16 13 14 12 13 14 11 12 10 11 13 12 11 4 6 7 10 13 11 7 5 6 10 11 9 8 6 5 7 10 12 12 10 7 2 3 6 11 8
15 16 17 17 10 11 13 13 14 8 10 12 18 11 14 11 14 16 22 8 9 8 9 9 8 11 11 8 9 10 10 10 9 9 9 8 8 8 6 9 7 7 10 10

GFSCGP_700_spd_147.txt.gz
Wind_Speed
4 6 10 7 9 15 5 8 8 2 4 5 10 9 14 10 30 30 22 20 16 10 13 18 21 18 16 12 12 9 8 13 15 14 9 9 8 12 10 12 13 13 12 12
9 12 6 12 13 4 7 6 11 10 7 12 8 11 5 3 35 32 30 29 22 19 23 16 17 12 18 9 9 9 10 13 15 15 13 11 11 13 14 14 15 12 12 13
10 14 1 7 10 6 12 10 4 8 5 19 8 10 10 14 11 21 26 24 23 20 23 21 24 22 14 10 10 10 8 11 14 17 16 11 10 14 10 15 13 9 6 11
11 8 8 2 7 2 4 4 2 2 7 11 23 4 20 13 7 22 37 34 28 29 25 25 21 18 11 10 11 11 11 11 13 16 17 17 10 11 12 13 14 12 8 8
9 6 7 10 8 8 11 4 4 6 11 10 20 13 6 19 15 7 36 34 34 32 24 26 23 21 17 9 7 9 12 14 13 14 16 16 14 13 13 12 10 11 9 7
13 7 9 6 6 8 12 11 7 8 13 12 13 8 11 19 9 9 16 40 38 41 28 24 25 26 22 17 12 10 10 15 14 13 17 18 18 14 12 11 10 9 8 5
12 14 9 8 8 6 8 9 11 7 4 2 17 13 11 18 8 7 14 28 41 43 27 35 27 29 24 16 12 12 10 17 14 12 16 18 19 16 13 12 10 8 10 9
16 9 14 5 11 12 11 10 11 4 2 3 9 6 5 13 7 5 8 21 30 39 39 26 23 22 27 22 15 12 10 15 16 13 16 18 18 16 15 15 13 14 10 12
11 10 7 3 4 3 7 11 6 4 4 3 4 7 9 7 16 7 5 8 22 36 38 24 27 28 32 34 20 21 9 12 18 15 15 17 16 17 13 13 15 12 5 9
5 13 6 4 6 7 11 12 8 5 3 1 13 5 10 6 11 12 9 7 15 30 28 25 30 19 10 28 19 21 10 8 17 17 17 18 17 19 18 16 9 15 15 12
6 8 12 6 5 8 7 13 2 4 6 6 3 8 16 13 24 16 8 8 9 27 27 28 26 21 16 18 25 23 12 12 15 18 18 18 17 19 20 16 13 19 13 12
7 9 14 14 6 6 1 5 10 13 6 6 4 6 6 8 4 8 9 8 8 10 21 29 27 26 28 21 27 29 18 15 15 19 19 19 18 18 15 14 14 16 15 13
7 2 7 10 9 12 1 8 7 5 2 5 4 3 2 4 10 6 10 14 10 15 17 31 35 35 33 29 26 25 14 13 17 19 18 18 17 15 14 13 13 13 14 14
11 14 9 14 15 13 12 13 16 15 8 6 8 11 11 10 14 8 18 14 10 11 10 25 39 35 34 26 28 25 20 20 16 19 20 20 18 16 15 14 14 14 14 13
9 6 6 12 12 12 15 17 16 20 14 15 20 14 13 12 14 23 23 22 7 15 12 18 31 43 36 36 40 31 26 21 23 20 19 19 18 17 16 15 15 14 13 12
5 5 8 11 11 16 17 14 17 17 19 19 16 19 16 14 16 7 12 17 9 14 12 13 31 35 42 39 40 37 30 24 27 24 17 17 19 18 17 16 15 15 14 13
6 4 5 6 11 17 15 13 15 4 5 14 11 13 9 8 13 9 12 13 11 13 12 15 27 30 34 44 43 43 38 32 28 20 17 18 17 17 17 17 16 14 14 14
13 12 12 11 13 9 11 6 2 5 8 13 12 4 2 7 12 10 11 12 14 13 12 5 12 38 30 28 38 34 32 36 30 24 23 21 19 17 17 17 15 15 15 12
13 9 9 8 14 18 24 9 4 6 9 15 15 6 6 8 11 10 6 6 6 4 15 12 7 9 38 37 33 26 28 24 26 29 28 25 22 20 21 21 19 16 14 14
13 8 10 10 10 4 1 4 6 6 1 10 10 12 17 14 14 20 14 15 9 9 9 17 17 16 11 18 28 34 30 35 39 37 30 29 28 26 24 22 20 16 15 16
14 13 13 15 13 9 4 8 9 3 3 3 13 14 16 15 10 14 17 25 15 14 12 14 17 20 19 22 31 32 34 33 26 38 46 35 32 30 26 23 22 19 17 18
11 15 13 16 19 6 5 6 6 9 13 15 20 19 21 24 26 22 19 28 19 17 16 12 15 16 13 17 19 17 17 22 18 26 21 27 30 28 27 24 21 19 17 17
18 12 13 9 6 9 9 8 8 10 18 23 17 13 17 21 19 13 13 14 14 14 15 14 15 15 15 15 10 9 12 11 8 10 16 9 24 28 29 23 19 16 17 16
15 20 13 9 10 8 9 11 10 14 12 12 12 14 16 16 17 17 21 16 18 14 14 15 16 17 17 16 12 10 9 3 11 12 3 5 2 14 6 7 8 18 16 16
18 12 14 16 18 13 10 11 13 14 18 19 15 16 18 16 15 10 13 11 10 11 13 17 15 12 15 15 15 15 11 10 13 12 6 3 5 7 8 10 11 12 13 12
11 13 15 11 4 6 8 10 12 16 19 17 11 10 15 16 17 18 15 13 9 11 16 14 14 14 10 12 16 13 9 10 8 6 10 10 6 7 8 8 10 12 12 10

GFSCGP_700_spd_150.txt.gz
Wind_Speed
8 10 16 17 8 12 12 9 5 7 5 4 1 7 17 30 21 24 26 27 26 17 16 14 10 11 7 5 6 5 12 13 14 11 11 11 11 10 15 17 15 16 21 19
3 3 8 6 6 6 6 5 4 6 1 7 6 8 11 22 32 22 25 25 23 23 18 21 18 12 11 7 6 5 5 11 15 14 12 12 12 13 15 15 15 16 17 17
5 4 6 9 11 22 9 4 7 11 7 4 11 14 11 7 27 35 30 28 27 23 19 21 16 18 11 6 5 4 5 12 17 19 16 14 17 14 14 13 14 15 16 13
9 7 4 4 6 6 11 10 10 13 8 3 13 6 8 11 13 36 39 35 30 26 21 22 23 17 12 8 1 4 7 12 15 17 17 13 16 17 18 18 15 15 16 13
7 5 3 9 10 6 7 7 15 12 9 3 7 9 9 9 17 18 29 40 36 30 29 24 17 15 21 12 5 3 5 12 12 15 15 13 16 18 20 21 16 17 17 13
9 8 4 9 3 5 3 7 10 15 13 6 7 9 8 8 18 14 16 29 39 33 29 26 22 18 17 14 13 6 4 11 12 13 17 18 18 17 17 17 17 17 17 16
6 12 10 6 6 3 7 8 4 3 3 5 3 5 2 13 14 12 14 17 23 34 31 28 30 24 19 17 11 11 7 7 12 12 17 21 20 15 14 17 15 15 16 16
6 7 15 6 8 9 8 5 7 5 3 5 4 4 5 13 18 12 8 12 20 34 35 32 27 20 17 18 13 13 9 7 10 14 17 21 19 17 11 19 17 15 13 16
8 6 15 6 4 2 7 3 4 4 4 1 5 3 10 11 14 13 9 11 14 25 35 33 27 32 22 21 20 14 10 8 10 15 17 18 18 18 17 14 13 14 12 13
2 4 3 9 9 4 9 10 6 1 3 2 3 2 8 10 9 13 7 9 8 19 21 33 27 25 23 20 22 16 12 12 9 15 17 16 17 19 19 18 16 12 12 10
3 3 4 3 3 11 9 13 5 3 3 5 1 5 5 4 5 7 13 17 9 3 21 27 38 26 24 20 16 25 16 17 14 16 17 18 19 20 20 18 17 12 15 9
4 10 13 10 6 2 4 10 3 2 4 4 2 4 1 2 14 10 2 5 4 6 15 18 24 27 28 20 17 15 14 17 14 13 16 19 20 22 21 22 20 17 16 15
7 6 4 9 4 5 10 12 12 5 2 7 6 3 3 2 5 6 4 11 4 4 11 22 31 29 27 25 25 20 16 18 17 18 17 20 20 22 20 19 22 21 18 18
7 9 7 1 5 9 13 9 12 10 4 7 11 8 11 6 7 6 8 10 10 8 12 16 18 34 36 32 27 25 20 18 21 21 18 20 20 22 22 22 22 22 20 20
6 5 7 2 5 6 11 11 11 12 16 12 16 13 11 9 9 9 8 9 19 30 23 23 18 20 30 37 32 29 27 24 23 19 17 19 21 21 22 22 22 22 21 19
1 1 2 4 7 9 12 8 9 14 5 6 6 9 8 6 5 3 12 15 18 18 22 21 20 18 25 34 32 31 30 30 28 23 16 19 22 25 25 24 22 22 21 20
6 6 6 5 9 11 8 6 7 3 4 4 4 1 6 2 4 6 8 11 9 21 23 18 18 22 18 27 35 36 37 40 35 28 22 23 23 28 29 27 26 25 24 22
10 10 7 4 7 1 4 7 7 4 10 11 6 6 4 4 6 9 9 12 10 14 17 19 21 15 17 25 31 35 42 46 40 24 26 25 24 24 26 26 25 24 23 21
13 11 6 5 7 12 14 2 3 5 7 11 7 4 0 4 6 8 13 10 6 8 13 19 20 16 17 15 29 45 40 42 34 32 27 26 26 26 26 26 25 25 25 23
13 10 11 8 3 4 8 4 5 4 3 3 2 2 3 5 9 12 16 18 21 19 14 13 20 18 15 12 14 25 38 31 43 37 32 42 34 32 30 29 30 26 24 23
15 13 13 10 8 6 9 4 9 10 6 5 8 11 14 15 17 20 23 22 18 22 22 15 13 18 20 13 13 9 16 25 19 18 28 40 48 36 36 34 31 30 27 24
17 16 13 14 12 9 9 8 10 8 10 11 13 17 22 18 13 20 19 15 15 21 24 22 14 14 16 15 14 14 14 16 21 15 16 21 51 48 39 36 34 33 29 23
10 9 10 8 4 6 7 11 11 8 7 12 18 21 21 15 18 17 13 19 20 18 17 17 18 16 16 16 13 11 14 14 8 12 9 15 34 30 34 36 36 36 27 23
18 14 12 7 5 4 5 11 11 12 15 14 16 19 23 19 19 18 17 21 15 16 21 15 17 17 13 14 13 10 8 9 12 9 5 6 16 12 24 36 16 23 11 10
17 16 18 19 11 14 16 15 14 17 20 17 22 27 18 21 17 15 12 12 13 13 15 16 17 17 14 14 14 11 8 9 4 2 4 4 7 11 15 7 6 10 9 6
11 16 19 17 14 9 9 14 18 20 16 21 21 16 14 14 14 14 19 21 26 21 15 16 15 15 13 16 16 14 11 8 8 6 6 5 8 6 10 12 7 5 8 8